Regional Weather Roundup
Issued by NWS Green Bay, WI

Home | Current Version | Previous Version | Text Only | Print | Product List | Glossary On
Versions: 1 2 3 4 5 6 7 8 9 10 11 12 13 14 15 16 17 18 19 20 21 22 23 24 25 26 27 28 29 30 31 32 33 34 35 36 37 38 39 40 41 42 43 44 45 46 47 48 49 50
000
ASUS43 KGRB 262111
RWRGRB

NORTH-CENTRAL AND NORTHEAST WISCONSIN REGIONAL WEATHER ROUNDUP
NATIONAL WEATHER SERVICE GREEN BAY WI
400 PM CDT MON SEP 26 2016

WIZ005-009-010>012-018-019-262200-
NORTH CENTRAL WISCONSIN

CITY           SKY/WX    TMP DP  RH WIND       PRES   REMARKS
IRONWOOD       RAIN      49  47  93 W20       29.70R FOG
MANITOWISH WTR LGT RAIN  47  47 100 W14G22    29.73R
ARBOR VITAE    DRIZZLE   51  49  91 W15G23    29.74R
EAGLE RIVER    DRIZZLE   49  44  84 W20G26    29.72S
LAND O LAKES   DRIZZLE   48  46  93 W8G18     29.71S
RHINELANDER    LGT RAIN  50  45  83 W20G31    29.76R
PHILLIPS       CLOUDY    52  43  72 W8G21     29.77S
ANTIGO         LGT RAIN  53  41  65 W17G28    29.77R
TOMAHAWK       DRIZZLE   51  42  71 W12G22    29.79R
MERRILL        CLOUDY    55  40  58 W16G30    29.79R
$$

WIZ013-073-262200-
NORTHEAST WISCONSIN

CITY           SKY/WX    TMP DP  RH WIND       PRES   REMARKS
IRON MOUNTAIN  CLOUDY    55  42  61 W15       29.69R
MARINETTE      CLOUDY    58  43  57 W8        29.74S
OCONTO         CLOUDY    60  41  50 W16G23    29.75S
$$

WIZ017-030-035>037-045-262200-
CENTRAL WISCONSIN

CITY           SKY/WX    TMP DP  RH WIND       PRES   REMARKS
MEDFORD        CLOUDY    55  40  58 W14G22    29.80S
WAUSAU         CLOUDY    56  38  50 W18G29    29.79R
MOSINEE        PTSUNNY   55  37  50 W18G33    29.82R
MARSHFIELD     CLOUDY    59  37  44 W15G32    29.83R
WISC RAPIDS    MOSUNNY   61  38  42 NW21G33   29.85R
STEVENS POINT  CLOUDY    58  37  45 W18G29    29.82R
WAUPACA        PTSUNNY   65  38  36 W17G29    29.81S
SHAWANO        CLOUDY    61  40  45 W14G29    29.77S
CLINTONVILLE   NOT AVBL
WAUTOMA        MOSUNNY   64  37  36 W21G31    29.83S
$$

WIZ038-039-048-051-262200-
FOX VALLEY

CITY           SKY/WX    TMP DP  RH WIND       PRES   REMARKS
NWS GREEN BAY  PTSUNNY   64  42  44 W18G26    29.78S
APPLETON       PTSUNNY   63  36  36 W16G29    29.79F
OSHKOSH        CLOUDY    63  38  39 W9G22     29.81F
FOND DU LAC    CLOUDY    62  37  39 W24G33    29.83F
$$

WIZ022-050-052-262200-
EAST CENTRAL WISCONSIN

CITY           SKY/WX    TMP DP  RH WIND       PRES   REMARKS
EPHRAIM        CLOUDY    57  44  60 W12G22    29.72F
WASHINGTON ISL CLOUDY    57  42  57 W16G26    29.71S
STURGEON BAY   CLOUDY    59  43  55 W10G18    29.76R
MANITOWOC      MOSUNNY   63  37  38 MISG      29.80S
SHEBOYGAN      CLOUDY    62  38  40 W18G31    29.83R
$$

LMZ563-521-522-541>543-262200-
LAKESHORE

STATION/POSITION TIME  TEMP    WIND        PRES    VSBY  WAVE
                       AIR SEA DIR/SP/G                  HT/PER
                 (UTC) (F)     (DEG/KT/KT) (MB)    (MI)  (FT/S)
SHEBOYGAN LKSHOR 2100   63     260/ 24/ 28 1009.7R
KEWAUNEE LKSHORE 2000   62     270/ 11/ 17 1007.6R
NORTHPORT PIER   2000   60     260/  5/ 25 1006.4R
N MID LAKE BUOY  2050   60 67  250/ 29/ 33 1004.3F         6/ 6
CHAMBERS ISLAND  2000   59     240/ 14/ 27 1006.4R
MENOMINEE LKSHOR 2000   59     250/ 13/ 20 1006.3R
$$




USA.gov is the U.S. government's official web portal to all federal, state and local government web resources and services.